Total_Precipitation_Accumulation
3.63 3.73 3.71 3.66 3.31 3.36 3.57 3.87 3.68 3.86 3.84 3.39 2.90 2.74 2.71 2.71 2.66 2.78 3.08 3.13 2.91 3.00 3.81 4.31 4.18 3.83 3.36 2.87 2.57 2.43 2.38 2.19 1.95 1.70 1.60 1.69 1.68 1.66 1.55 1.31 1.16 1.00 0.82
3.97 4.03 3.99 3.89 3.47 3.33 3.64 3.96 3.90 4.40 4.30 4.09 3.49 3.12 2.93 2.88 2.83 2.93 3.25 3.48 3.40 3.33 3.81 4.43 4.69 4.63 4.18 3.58 3.08 2.77 2.75 2.66 2.39 1.95 1.76 1.86 1.92 1.83 1.74 1.55 1.30 1.12 0.91
4.14 4.00 4.00 3.83 3.68 3.59 3.76 3.84 3.94 4.35 4.11 4.08 3.90 3.56 3.34 3.11 2.91 3.11 3.49 3.87 3.51 3.41 3.79 4.33 4.76 4.76 4.61 4.32 3.78 3.34 3.01 2.80 2.63 2.26 1.92 1.80 1.83 1.77 1.70 1.62 1.44 1.20 0.95
4.05 4.14 3.91 3.71 3.76 3.71 3.92 4.22 4.21 4.31 4.44 4.39 4.16 3.84 3.64 3.51 3.05 3.08 3.24 3.44 3.69 3.19 3.62 4.33 4.63 4.39 4.50 4.74 4.65 4.36 3.83 3.19 2.89 2.56 2.21 1.96 1.89 1.80 1.67 1.60 1.50 1.30 1.03
3.81 4.19 4.06 4.05 3.95 4.16 4.07 3.70 4.34 4.56 4.56 4.49 3.89 3.84 3.41 3.34 3.26 3.03 3.15 3.21 3.41 3.34 3.40 3.55 4.18 4.02 4.26 4.83 5.17 5.27 4.95 4.27 3.56 3.09 2.71 2.41 2.24 1.98 1.75 1.62 1.51 1.31 1.08
3.84 4.14 3.93 3.92 4.07 4.47 4.52 4.38 4.69 4.62 4.46 4.56 3.83 3.57 3.24 2.92 2.90 2.88 2.69 2.92 2.97 2.68 2.92 3.17 3.60 3.08 3.36 3.90 4.47 5.16 5.57 5.46 4.71 3.87 3.47 3.20 2.99 2.51 1.99 1.70 1.49 1.32 1.15
3.69 4.08 3.80 4.20 4.21 4.39 4.50 4.46 4.70 4.58 4.32 4.42 4.40 3.80 3.14 2.71 2.63 2.44 2.44 2.66 2.58 2.62 2.95 3.43 3.71 3.58 3.16 3.13 3.43 4.22 5.23 5.81 5.56 4.78 4.28 3.97 3.73 3.21 2.45 2.02 1.64 1.38 1.25
3.41 3.51 4.11 4.08 4.17 4.39 4.43 4.38 4.43 4.17 3.86 4.24 4.60 4.44 3.64 3.15 2.68 2.18 2.42 2.45 2.58 2.86 2.87 2.93 3.39 3.77 3.56 3.59 3.15 3.17 4.34 5.46 5.98 5.73 5.34 4.94 4.51 3.73 2.98 2.47 1.96 1.58 1.40
3.43 3.56 3.86 3.98 4.08 3.98 4.20 4.39 4.19 4.09 3.96 4.02 4.27 4.55 4.06 3.38 2.82 2.44 2.29 2.36 2.72 2.99 2.82 2.76 2.75 3.03 3.11 3.60 3.76 3.22 3.39 3.84 4.71 5.81 6.23 6.02 5.18 4.02 3.29 2.86 2.44 1.96 1.61
3.23 3.34 3.55 3.77 3.91 3.80 3.97 3.82 3.91 4.08 4.12 3.92 4.01 3.92 3.84 3.61 3.44 2.97 2.51 2.38 2.62 2.71 2.68 2.45 2.44 2.78 2.95 3.43 3.61 3.01 2.69 2.67 3.06 4.27 5.46 5.71 5.24 4.22 3.48 3.26 3.19 2.77 2.14
3.08 3.07 3.30 3.50 3.62 3.50 3.49 3.70 4.06 4.00 3.93 3.80 3.91 3.91 4.04 3.88 3.56 3.40 2.99 2.70 2.55 2.29 2.37 2.41 2.38 2.47 2.69 3.09 3.28 2.75 2.60 2.38 2.32 2.72 3.52 4.16 4.45 4.16 3.70 3.62 3.90 3.87 3.39
3.01 2.95 3.06 3.36 3.42 3.34 3.33 3.46 3.57 3.62 3.65 3.75 3.75 3.63 3.86 3.89 3.71 3.76 3.36 2.97 2.66 2.17 2.09 2.18 2.29 2.42 2.54 2.73 2.47 2.34 2.46 2.29 2.12 2.11 2.39 2.86 3.35 3.62 3.56 3.67 4.04 4.35 4.37
2.89 2.89 2.89 3.04 2.96 2.95 3.05 3.30 3.32 3.25 3.28 3.39 3.35 3.39 3.39 3.30 3.40 3.58 3.54 3.09 2.71 2.18 2.09 1.97 1.97 2.20 2.21 2.54 2.61 2.48 2.32 2.19 2.03 1.98 2.04 2.16 2.46 2.77 3.07 3.33 3.78 4.24 4.50
2.75 2.72 2.64 2.60 2.54 2.56 2.62 3.00 3.07 3.00 3.08 3.11 3.01 3.30 3.15 2.97 3.16 3.18 3.28 3.44 3.15 2.74 2.59 2.30 1.92 1.94 2.19 2.43 2.55 2.47 2.13 2.14 1.98 1.91 1.89 1.91 2.02 2.16 2.36 2.63 2.96 3.26 3.57
2.31 2.42 2.37 2.28 2.25 2.36 2.52 2.66 2.69 2.69 2.84 2.81 2.85 2.94 2.75 2.71 2.80 2.83 3.01 3.31 3.43 3.18 2.98 2.72 2.30 2.04 2.10 2.33 2.65 2.38 2.22 2.13 1.96 1.85 1.74 1.70 1.71 1.76 1.84 1.97 2.17 2.39 2.53
2.28 2.20 2.14 2.07 2.09 2.14 2.23 2.42 2.41 2.51 2.51 2.49 2.62 2.66 2.63 2.57 2.71 2.66 2.70 2.95 3.20 3.28 3.05 2.74 2.46 2.13 2.22 2.17 2.40 2.29 2.29 2.25 1.97 1.77 1.59 1.50 1.50 1.56 1.66 1.73 1.80 1.93 1.99
2.34 2.31 2.24 2.19 2.06 2.00 2.09 2.20 2.07 2.22 2.22 2.24 2.22 2.30 2.35 2.52 2.66 2.61 2.67 2.73 3.00 3.32 3.23 2.97 2.69 2.51 2.43 2.41 2.25 2.17 2.08 1.98 1.80 1.68 1.46 1.37 1.37 1.39 1.45 1.53 1.62 1.75 1.83
2.00 2.02 1.98 1.98 1.98 2.07 2.18 2.10 2.04 2.08 2.16 2.14 2.22 2.38 2.27 2.45 2.59 2.51 2.62 2.64 2.82 3.18 3.33 3.41 3.33 3.03 2.77 2.63 2.56 2.35 1.93 1.77 1.81 1.79 1.59 1.43 1.35 1.33 1.32 1.35 1.43 1.57 1.69
1.97 1.93 1.92 1.92 1.95 2.14 2.26 2.21 2.19 2.25 2.29 2.17 2.28 2.32 2.20 2.32 2.38 2.40 2.46 2.53 2.71 2.92 3.20 3.17 3.20 3.13 2.98 2.74 2.84 2.54 2.21 2.14 1.76 1.72 1.66 1.50 1.40 1.34 1.31 1.32 1.36 1.41 1.50
2.03 2.09 2.08 2.03 2.05 2.00 2.03 2.17 2.30 2.31 2.28 2.19 2.17 2.09 1.98 1.99 2.07 2.25 2.26 2.40 2.61 2.81 3.01 2.96 3.02 3.12 3.20 3.21 3.24 2.99 2.78 2.54 2.16 1.74 1.76 1.58 1.51 1.41 1.29 1.23 1.24 1.30 1.42
1.98 2.19 2.20 2.16 2.15 2.02 1.90 1.99 2.10 2.05 2.09 2.05 1.99 1.82 1.64 1.69 1.79 1.88 1.81 2.17 2.49 2.61 2.70 2.78 2.87 3.07 3.23 3.47 3.27 3.13 3.01 2.95 2.64 2.20 2.13 1.78 1.66 1.46 1.30 1.25 1.25 1.26 1.32
2.14 2.17 2.12 2.12 2.03 1.73 1.79 1.74 1.70 1.74 1.81 1.84 1.87 1.84 1.68 1.58 1.54 1.58 1.56 1.72 2.04 2.20 2.40 2.69 2.82 3.03 3.13 3.16 3.33 3.31 3.26 3.11 2.82 2.50 2.49 2.40 2.24 2.09 1.80 1.48 1.40 1.26 1.19
2.06 1.96 1.90 1.90 1.85 1.77 1.62 1.41 1.37 1.49 1.67 1.75 1.80 1.82 1.58 1.47 1.53 1.41 1.50 1.56 1.60 1.70 1.87 2.25 2.52 2.62 2.68 2.73 3.04 3.15 3.16 3.03 2.93 2.79 2.85 2.83 2.69 2.45 2.01 1.79 1.71 1.46 1.33
1.90 1.92 1.82 1.80 1.87 1.77 1.67 1.42 1.32 1.28 1.46 1.52 1.51 1.55 1.59 1.57 1.49 1.53 1.51 1.50 1.42 1.45 1.55 1.59 1.76 1.98 2.26 2.50 2.71 2.91 3.19 3.15 3.08 2.99 2.95 3.05 2.89 2.73 2.33 2.04 1.91 1.66 1.54
1.86 1.87 1.85 1.87 1.85 1.79 1.72 1.50 1.41 1.37 1.48 1.50 1.53 1.54 1.63 1.69 1.71 1.56 1.50 1.53 1.53 1.55 1.51 1.52 1.47 1.57 1.74 1.88 2.06 2.34 2.70 3.04 3.25 3.22 3.00 3.09 3.04 3.04 2.96 2.55 2.13 1.92 1.65
1.89 1.88 1.92 1.88 1.78 1.73 1.62 1.43 1.41 1.42 1.61 1.71 1.82 1.81 1.72 1.60 1.61 1.50 1.47 1.55 1.53 1.53 1.45 1.42 1.37 1.35 1.35 1.49 1.68 1.88 2.18 2.56 2.85 3.01 2.93 3.05 3.22 3.55 3.69 3.16 2.55 2.11 1.88